"Pseudo-MPEC" for P11Jpwm

Created 2023 Sep 19 17:22:25 UT using Find_Orb

Click here for an explanation of pseudo-MPECs

 
 Astrometry: 
     P11Jpwm* C2023 09 13%w0Nmw4%AstrometryWxDF%tsredacted;:X#mJc!QlDsvu!Ure^F51
     P11Jpwm  C2023 09 13fcrclickEtjCj;wd48w7+!T-,F+v'[,SGj?d^`aWPVTnhereDlk5F51
     P11Jpwm  C2023 09 13RGj9SjD3g%osYp=RZYq?2OIC^=g*cfor#explanation\0mu=]tQF51

Station data:
(F51) Pan-STARRS 1, Haleakala  (N20.707234 W156.255910)  US/Hawaii.
   Observers J. Bulger, T. Lowe, A. Schultz, M. Willman. Measurers K.
   Chambers, S. Chastel, T. de Boer, L. Denneau, J. Fairlamb, H. Flewelling,
   M. Huber, C.-C. Lin, E. Magnier, Y. Ramanjooloo, R. Wainscoat, R. Weryk.
   1.8-m Ritchey-Chrétien + CCD.

Orbital elements:  P11Jpwm
   Perihelion 2023 Aug 6.82418 +/- 53.9 TT = 19:46:49 (JD 2460163.32418)
Epoch 2023 Sep 14.0 TT = JDT 2460201.5   Earth MOID: 0.2730   Ju: 0.6856
M   4.97364515 +/- 39               Ma: 0.0998                   AutoNEOCP
n   0.13028261 +/- 0.252            Peri.  189.27675 +/- 100
a   3.85370437 +/- 4.96             Node   143.77986 +/- 60
e   0.6677029 +/- 0.262             Incl.   27.67067 +/- 14
P   7.57                   H 20.36  G  0.15   U 11.8  SR
q 1.28057445 +/- 0.472    Q 6.42683430 +/- 31.1           (J2000 ecliptic)
From 3 observations 2023 Sept. 13 (26.4 min); mean residual 0".03
Residuals in arcseconds: 
230913 F51  .00   .03+    230913 F51  .01-  .05-    230913 F51  .00   .03+    

Ephemerides (geocentric):
Date (UTC) HH   RA             Dec           delta  r     elong  mag " sig PA
---- --------  ------------   ------------  ------ ------ -----  --- --------
2023 09 19 17  03 24 08.608   -35 36 35.33  .58818 1.3895 119.1 21.5  37d 107
2023 09 19 18  03 24 11.154   -35 37 37.96  .58842 1.3897 119.1 21.5  37d 107
2023 09 19 19  03 24 13.693   -35 38 40.51  .58866 1.3899 119.1 21.5  37d 107
2023 09 19 20  03 24 16.223   -35 39 42.96  .58889 1.3901 119.1 21.5  37d 107
2023 09 19 21  03 24 18.744   -35 40 45.32  .58913 1.3903 119.2 21.5  37d 107
2023 09 19 22  03 24 21.257   -35 41 47.60  .58937 1.3905 119.2 21.5  37d 107
2023 09 19 23  03 24 23.762   -35 42 49.78  .58960 1.3906 119.2 21.5  37d 107
2023 09 20 00  03 24 26.259   -35 43 51.87  .58984 1.3908 119.2 21.5  37d 107
2023 09 20 01  03 24 28.747   -35 44 53.88  .59008 1.3910 119.2 21.5  37d 107
2023 09 20 02  03 24 31.227   -35 45 55.79  .59032 1.3912 119.2 21.5  37d 107
2023 09 20 03  03 24 33.698   -35 46 57.62  .59055 1.3914 119.2 21.5  38d 107
2023 09 20 04  03 24 36.161   -35 47 59.36  .59079 1.3916 119.2 21.5  38d 107
2023 09 20 05  03 24 38.616   -35 49 01.01  .59103 1.3918 119.2 21.5  38d 107
2023 09 20 06  03 24 41.063   -35 50 02.56  .59127 1.3920 119.2 21.5  38d 107
2023 09 20 07  03 24 43.501   -35 51 04.03  .59150 1.3922 119.2 21.5  38d 107
2023 09 20 08  03 24 45.931   -35 52 05.41  .59174 1.3924 119.2 21.5  38d 107
2023 09 20 09  03 24 48.353   -35 53 06.70  .59198 1.3926 119.2 21.5  38d 107
2023 09 20 10  03 24 50.766   -35 54 07.90  .59222 1.3928 119.2 21.5  39d 107
2023 09 20 11  03 24 53.171   -35 55 09.02  .59246 1.3930 119.2 21.5  39d 107
2023 09 20 12  03 24 55.568   -35 56 10.04  .59269 1.3932 119.2 21.5  39d 107
2023 09 20 13  03 24 57.957   -35 57 10.97  .59293 1.3934 119.2 21.5  39d 107
2023 09 20 14  03 25 00.337   -35 58 11.82  .59317 1.3936 119.2 21.5  39d 107
2023 09 20 15  03 25 02.709   -35 59 12.57  .59341 1.3938 119.2 21.5  39d 107
2023 09 20 16  03 25 05.073   -36 00 13.24  .59365 1.3940 119.2 21.5  39d 108
2023 09 20 17  03 25 07.428   -36 01 13.81  .59389 1.3942 119.2 21.5  39d 108
2023 09 20 18  03 25 09.775   -36 02 14.30  .59413 1.3944 119.2 21.5  39d 108
2023 09 20 19  03 25 12.114   -36 03 14.70  .59437 1.3946 119.2 21.5  39d 108
2023 09 20 20  03 25 14.445   -36 04 15.01  .59461 1.3948 119.2 21.5  40d 108
2023 09 20 21  03 25 16.768   -36 05 15.23  .59484 1.3950 119.2 21.5  40d 108
2023 09 20 22  03 25 19.082   -36 06 15.36  .59508 1.3952 119.2 21.5  40d 108
2023 09 20 23  03 25 21.388   -36 07 15.41  .59532 1.3954 119.2 21.5  40d 108
2023 09 21 00  03 25 23.686   -36 08 15.36  .59556 1.3956 119.2 21.5  40d 108
2023 09 21 01  03 25 25.975   -36 09 15.23  .59580 1.3958 119.2 21.5  40d 108
2023 09 21 02  03 25 28.257   -36 10 15.00  .59604 1.3960 119.3 21.5  40d 108
2023 09 21 03  03 25 30.530   -36 11 14.69  .59628 1.3962 119.3 21.5  40d 108
2023 09 21 04  03 25 32.795   -36 12 14.29  .59652 1.3964 119.3 21.5  40d 108
2023 09 21 05  03 25 35.051   -36 13 13.80  .59676 1.3966 119.3 21.5  40d 108
2023 09 21 06  03 25 37.300   -36 14 13.22  .59700 1.3968 119.3 21.5  40d 108
2023 09 21 07  03 25 39.540   -36 15 12.56  .59724 1.3970 119.3 21.5  40d 108
2023 09 21 08  03 25 41.772   -36 16 11.80  .59748 1.3972 119.3 21.5  40d 108
2023 09 21 09  03 25 43.996   -36 17 10.95  .59773 1.3974 119.3 21.5  40d 108
2023 09 21 10  03 25 46.212   -36 18 10.02  .59797 1.3976 119.3 21.5  40d 108
2023 09 21 11  03 25 48.420   -36 19 09.00  .59821 1.3978 119.3 21.5  41d 108
2023 09 21 12  03 25 50.619   -36 20 07.89  .59845 1.3980 119.3 21.5  41d 108
2023 09 21 13  03 25 52.811   -36 21 06.69  .59869 1.3982 119.3 21.5  41d 108
2023 09 21 14  03 25 54.994   -36 22 05.40  .59893 1.3984 119.3 21.5  41d 108
2023 09 21 15  03 25 57.169   -36 23 04.03  .59917 1.3986 119.3 21.5  41d 108
2023 09 21 16  03 25 59.335   -36 24 02.56  .59941 1.3988 119.3 21.5  41d 108